Voltar ao catálogo

STARLINK-32591

AtivoComunicaçõesVLEO
NORAD 61718·PAYLOAD·🇺🇸 United States

Lançado Oct 30, 2024 de Cape Canaveral Space Force Station

Loading…

Próximas Passagens (próximas 24 horas)

TLE

AtualizadoSource: CelesTrak SupGP

Época: Sep 14, 2026, 20:46 UTC

1 61718C 24196M   26257.86576389  .00022730  00000+0  67181-3 0  2575
2 61718  53.1567 285.7515 0001090  89.0026  55.7151 15.34367893    14

Acompanhe STARLINK-32591 em tempo real com AllMySat

Download on the App Store